Nenana, AK

7:38 PM AKDT on August 31, 2016 (GMT -0800)
Nenana Municipal

Weather History for PANN - February, 2013

Change the Weather History Date:

Saturday, February 9, 2013

  Actual Average Record
Temperature  
Mean Temperature 28 °F -  
Max Temperature 45 °F 7 °F 65 °F (1993)
Min Temperature 9 °F -10 °F -29 °F (2014)
Degree Days  
Heating Degree Days 38    
Moisture  
Dew Point 10 °F    
Average Humidity 76    
Maximum Humidity 95    
Minimum Humidity 58    
Precipitation  
Precipitation 0.08 in - - ()
Sea Level Pressure  
Sea Level Pressure 29.50 in    
Wind  
Wind Speed 6 mph (NE)    
Max Wind Speed 20 mph    
Max Gust Speed 30 mph    
Visibility 10 miles    
Events      
Averages and records for this station are not official NWS values.
T = Trace of Precipitation, MM = Missing Value Source: NWS Daily Summary

Daily Weather History Graph

Daily Weather History Graph

Search for Another Location

Airport or City:

Trip Planner

Search our weather history database for the weather conditions in past years. The results will help you decide how hot, cold, wet, or windy it might be!

Date:

Astronomy

Feb. 09, 2013 Rise Set
Actual Time 9:12 AM AKST 5:10 PM AKST
Civil Twilight 8:18 AM AKST 6:04 PM AKST
Nautical Twilight 7:20 AM AKST 7:02 PM AKST
Astronomical Twilight 6:24 AM AKST 7:58 PM AKST
Moon 8:21 AM AKST (2/9) 5:20 PM AKST (2/9)
Length of Visible Light 9h 46m
Length of Day
7h 57m
Waning Crescent, 0% of the Moon is Illuminated
Feb 9
Waning Crescent
Feb 9
New
Feb 17
First Quarter
Feb 25
Full
Mar 4
Last Quarter

Hourly Weather History & Observations

Time (AKST) Temp. Windchill Dew Point Humidity Pressure Visibility Wind Dir Wind Speed Gust Speed Precip Events Conditions
12:53 AM -6.0 °F - -9.9 °F 83% 29.83 in 10.0 mi Calm Calm - N/A   Clear
1:53 AM -6.0 °F - -9.9 °F 83% 29.81 in 10.0 mi Calm Calm - N/A   Clear
3:53 AM -11.0 °F - -16.1 °F 78% 29.75 in 10.0 mi Calm Calm - N/A   Clear
4:53 AM -4.0 °F -19.0 °F -8.0 °F 83% 29.71 in 10.0 mi East 8.1 mph - N/A   Clear
5:53 AM 10.9 °F -0.8 °F 7.0 °F 84% 29.65 in 10.0 mi ENE 8.1 mph - N/A   Clear
6:53 AM 12.9 °F -0.2 °F 7.0 °F 77% 29.60 in 10.0 mi ENE 10.4 mph - N/A   Clear
7:53 AM 17.1 °F 3.6 °F 10.9 °F 77% 29.58 in 10.0 mi ENE 12.7 mph 21.9 mph N/A   Mostly Cloudy
8:53 AM 19.0 °F 6.1 °F 12.0 °F 74% 29.53 in 10.0 mi ENE 12.7 mph 20.7 mph N/A   Overcast
9:53 AM 21.9 °F 7.3 °F 12.9 °F 68% 29.48 in 10.0 mi ENE 18.4 mph 29.9 mph N/A   Overcast
10:53 AM 21.9 °F 6.9 °F 12.0 °F 66% 29.43 in 10.0 mi East 19.6 mph 24.2 mph 0.00 in   Clear
11:53 AM 21.0 °F 6.6 °F 12.0 °F 68% 29.38 in 10.0 mi ENE 17.3 mph 26.5 mph N/A   Clear
12:53 PM 26.1 °F 15.6 °F 15.1 °F 63% 29.35 in 10.0 mi ENE 11.5 mph 18.4 mph N/A   Clear
1:53 PM 27.0 °F 14.3 °F 16.0 °F 63% 29.33 in 10.0 mi East 17.3 mph 21.9 mph N/A   Clear
2:53 PM 28.9 °F 19.2 °F 16.0 °F 58% 29.29 in 10.0 mi ENE 11.5 mph 17.3 mph N/A   Clear
3:53 PM 28.9 °F 20.4 °F 17.1 °F 61% 29.25 in 10.0 mi ENE 9.2 mph - N/A   Clear
4:53 PM 18.0 °F 9.8 °F 10.0 °F 71% 29.21 in 10.0 mi NNE 5.8 mph - N/A   Clear
5:53 PM 12.0 °F 4.1 °F 6.1 °F 77% 29.19 in 10.0 mi WNW 4.6 mph - N/A   Clear
6:53 PM 10.9 °F - 6.1 °F 81% 29.16 in 10.0 mi Calm Calm - N/A   Partly Cloudy
7:53 PM 12.0 °F 1.5 °F 6.1 °F 77% 29.13 in 10.0 mi NNE 6.9 mph - N/A   Clear
8:53 PM 10.0 °F -1.9 °F 3.9 °F 76% 29.11 in 10.0 mi NW 8.1 mph - N/A   Partly Cloudy
9:53 PM 16.0 °F 2.9 °F 8.1 °F 71% 29.06 in 10.0 mi East 11.5 mph 16.1 mph N/A   Clear
11:53 PM 9.0 °F -2.2 °F 3.9 °F 80% 29.03 in 10.0 mi NW 6.9 mph - N/A   Clear